Regional Weather Roundup
Issued by NWS

Home | Current Version | Previous Version | Text Only | Print | Product List | Glossary On
Versions: 1 2 3 4 5 6 7 8 9 10 11 12 13 14 15 16 17 18 19 20 21 22 23 24 25 26 27 28 29 30 31 32 33 34 35 36 37 38 39 40 41 42 43 44 45 46 47 48 49 50
000
ASCA44 KEWX 311220
RWRMX

LATIN AMERICA AND CARIBBEAN REGIONAL WEATHER ROUNDUP
NATIONAL WEATHER SERVICE AUSTIN/SAN ANTONIO TX
600 AM CST SAT JAN 31 2015

NOTE: "FAIR" INDICATED FEW OR NO CLOUDS BELOW 12,000 FEET WITH NO
SIGNIFICANT WEATHER AND/OR OBSTRUCTIONS TO VISIBILITY.

BAJA CALIFORNIA

CITY           SKY/WX    TMP DP  RH WIND       PRES   REMARKS
TIJUANA          N/A    N/A N/A N/A MISG        N/A

NORTHWESTERN MEXICO

CITY           SKY/WX    TMP DP  RH WIND       PRES   REMARKS
DURANGO        LGT RAIN  52  48  87 S8        30.07S
HERMOSILLO     CLOUDY    63  61  94 S7        29.85
LOS MOCHIS     PTCLDY    61  57  88 E5        29.90
OBREGON        PTCLDY    61  59  94 SE9       29.83

NORTHEASTERN MEXICO

CITY           SKY/WX    TMP DP  RH WIND       PRES   REMARKS
CHIHUAHUA      MOCLDY    45  45 100 SW6       29.95  WCI  41
MONTERREY      CLOUDY    59  57  94 E12       30.00F
NUEVO LAREDO   LGT RAIN  61  57  88 SE9       30.05
REYNOSA        MOCLDY    61  57  88 E7        30.05
SALTILLO       FOG       52  48  87 N9        30.11  VSB 3/4
TORREON        MOCLDY    54  52  94 CALM      30.01  HAZE
CD. VICTORIA   PTCLDY    61  61 100 SE9       30.06

WESTERN MEXICO

CITY           SKY/WX    TMP DP  RH WIND       PRES   REMARKS
AGUASCALIENTES MOCLDY    46  36  66 N3        30.18
COLIMA         PTCLDY    64  63  94 N7        30.01
DEL BAJIO      MOCLDY    52  39  62 CALM      30.24S
GUADALAJARA    PTCLDY    55  52  88 CALM      30.11
MAZATLAN       CLOUDY    64  63  94 N9        29.88F
P. VALLARTA    MOCLDY    70  68  94 E3        29.89F
ZACATECAS      CLEAR     48  32  53 S17       30.15  WCI  42

CENTRAL MEXICO

CITY           SKY/WX    TMP DP  RH WIND       PRES   REMARKS
CUERNAVACA       N/A    N/A N/A N/A MISG        N/A
MEXICO CITY    PTCLDY    43  36  75 E3        30.28R
MORELIA        PTCLDY    43  37  81 CALM      30.17
POZA RICA        N/A    N/A N/A N/A MISG        N/A
PUEBLA         PTCLDY    36  30  80 NW5       30.27S WCI  32
QUERETARO      PTCLDY    41  39  93 NW6       30.25S WCI  37
S. LUIS POTOSI PTCLDY    41  39  93 CALM      30.18
TAMPICO        PTCLDY    59  57  94 CALM      30.09  FOG
TOLUCA         PTCLDY    36  27  69 CALM      30.31

SOUTHERN MEXICO

CITY           SKY/WX    TMP DP  RH WIND       PRES   REMARKS
ACAPULCO       CLEAR     73  70  88 N5        29.89S
B. DE HUATULCO   N/A    N/A N/A N/A MISG        N/A
OAXACA           N/A    N/A N/A N/A MISG        N/A
P. ESCONDIDO     N/A    N/A N/A N/A MISG        N/A
VERACRUZ       PTCLDY    59  55  88 NW3       30.09
ZIHUATANEJO      N/A    N/A N/A N/A MISG        N/A

YUCATAN PENINSULA

CITY           SKY/WX    TMP DP  RH WIND       PRES   REMARKS
CAMPECHE       PTCLDY    63  61  94 SE7       30.08R
CANCUN         CLEAR     63  57  82 NE2       30.11R
CD. DEL CARMEN CLEAR     66  61  82 E5        30.06
COZUMEL        PTCLDY    64  61  88 E6        30.10R
MERIDA         CLEAR     63  59  88 E5        30.12R
TAPACHULA      CLEAR     72  61  68 CALM      29.90R
TUX. GUTIERREZ CLEAR     52  50  93 CALM      30.10
VILLAHERMOSA   PTCLDY    63  61  94 CALM      30.09

CENTRAL AMERICA

CITY           SKY/WX    TMP DP  RH WIND       PRES   REMARKS
BELIZE CITY    MOCLDY    68  66  94 W3        30.07S
MANAGUA          N/A     72  63  73 CALM      29.89S

CARIBBEAN

CITY           SKY/WX    TMP DP  RH WIND       PRES   REMARKS
ARUBA          MOSUNNY   81  73  78 NE13      29.92R
KINGSTON       PTCLDY    75  70  83 N3        29.97R
NASSAU         PTCLDY    68  57  68 N10       30.16R
SAN JUAN       MOSUNNY   73  70  88 CALM      30.01R
SANTO DOMINGO  PTCLDY    70  70 100 N5        30.00R
ST. KITTS      MOSUNNY   77  70  78 NE7       30.00R
ST. MAARTEN      N/A     79  72  78 VRB2      30.00R

$$



USA.gov is the U.S. government's official web portal to all federal, state and local government web resources and services.